(°C)
(°C)
-4°
-4°
-4°
-4°
-4°
-4°
-4°
SSE
SSE
S
S
SSE
SSE
SSE
(km/h)
32-44
32-44
32-43
31-43
30-43
29-42
28-42
(mm)
0
0
0
0
0
0
0
(%)
0
0
0
0
0
7
9

Elevația soarelui

/ -14.4°
sun-icon
UV 0
09:16
17:30
(3°)
09:22
17:19

METAR pentru 51.15°N 51.54°E (UARR)

Ora Condiții Temperatură/
Punctul de rouă
Vânt Vizibilitate Vremea Nori Presiune Schimbă Brut
VFR 4°C / 2°C 180º 19kt >10km - Broken Clouds 3300ft 1016 No Significant change UARR 041330Z 18010MPS 9999 BKN033 04/02 Q1016 NOSIG RMK QFE759/1012
VFR 4°C / 2°C 170º 17kt >10km - Broken Clouds 3600ft 1016 No Significant change UARR 041300Z 17009MPS 9999 BKN036 04/02 Q1016 NOSIG RMK QFE759/1012
VFR 4°C / 2°C 170º 17kt >10km - Overcast 3500ft 1017 No Significant change UARR 041230Z 17009MPS 9999 OVC035 04/02 Q1017 NOSIG RMK QFE759/1012
VFR 4°C / 2°C 170º 16kt >10km - Broken Clouds 3600ft 1017 No Significant change UARR 041200Z 17008MPS 9999 BKN036 04/02 Q1017 NOSIG RMK QFE759/1012
VFR 4°C / 2°C 170º 17kt >10km - Broken Clouds 3600ft 1017 No Significant change UARR 041130Z 17009MPS 9999 BKN036 04/02 Q1017 NOSIG RMK QFE759/1012
VFR 5°C / 2°C 170º 17kt >10km - Broken Clouds 3500ft 1017 No Significant change UARR 041100Z 17009MPS 9999 BKN035 05/02 Q1017 NOSIG RMK QFE759/1012
VFR 5°C / 2°C 170º 19kt >10km - Broken Clouds 3200ft 1017 No Significant change UARR 041030Z 17010MPS 9999 BKN032 05/02 Q1017 NOSIG RMK QFE759/1012
VFR 5°C / 2°C 170º 17kt >10km - Few Clouds 2600ft 1017 No Significant change UARR 041000Z 17009MPS 9999 FEW026 05/02 Q1017 NOSIG RMK QFE759/1013
MVFR 4°C / 2°C 180º 19kt >10km - Scattered Clouds 1200ft
Broken Clouds 2600ft
1018 No Significant change UARR 040930Z 18010MPS 9999 SCT012 BKN026 04/02 Q1018 NOSIG RMK QFE760/1013
MVFR 4°C / 2°C 170º 17kt >10km - Scattered Clouds 1100ft
Broken Clouds 2600ft
1018 No Significant change UARR 040900Z 17009MPS 9999 SCT011 BKN026 04/02 Q1018 NOSIG RMK QFE760/1013
MVFR 3°C / 1°C 180º 19kt >10km - Scattered Clouds 1100ft
Overcast 2600ft
1018 No Significant change UARR 040830Z 18010MPS 9999 SCT011 OVC026 03/01 Q1018 NOSIG RMK QFE760/1014
MVFR 3°C / 1°C 180º 19kt >10km - Broken Clouds 1400ft 1018 No Significant change UARR 040808Z 18010MPS 9999 BKN014 03/01 Q1018 NOSIG RMK QFE760/1014
VFR 3°C / 0°C 180º 21kt >10km - Few Clouds 3300ft 1019 No Significant change UARR 040730Z 18011MPS 9999 FEW033 03/00 Q1019 NOSIG RMK QFE760/1014
VFR 2°C / 0°C 180º 19kt >10km - Few Clouds 3300ft 1019 No Significant change UARR 040700Z 18010MPS 9999 FEW033 02/M00 Q1019 NOSIG RMK QFE761/1014
VFR 2°C / -1°C 180º 19kt >10km - Scattered Clouds 2600ft 1020 No Significant change UARR 040630Z 18010MPS 9999 SCT026 02/M01 Q1020 NOSIG RMK QFE761/1015
VFR 1°C / -1°C 180º 17kt >10km - Few Clouds 3300ft 1020 No Significant change UARR 040600Z 18009MPS 9999 FEW033 01/M01 Q1020 NOSIG RMK QFE761/1015
VFR 1°C / -1°C 180º 17kt >10km - Few Clouds 3300ft 1020 No Significant change UARR 040530Z 18009MPS 9999 FEW033 01/M01 Q1020 NOSIG RMK QFE761/1015
VFR 1°C / -1°C 180º 16kt >10km - Clouds and Visibility OK 1020 No Significant change UARR 040500Z 18008MPS CAVOK 01/M01 Q1020 NOSIG RMK QFE761/1015
VFR 1°C / 0°C 170º 16kt >10km - Clouds and Visibility OK 1020 No Significant change UARR 040430Z 17008MPS CAVOK 01/M00 Q1020 NOSIG RMK QFE761/1015
VFR 1°C / 0°C 170º 14kt >10km - Clouds and Visibility OK 1020 No Significant change UARR 040400Z 17007MPS CAVOK 01/00 Q1020 NOSIG RMK QFE762/1016
VFR 1°C / 1°C 170º 12kt >10km - Clouds and Visibility OK 1021 No Significant change UARR 040330Z 17006MPS CAVOK 01/01 Q1021 NOSIG RMK QFE762/1016
VFR 2°C / 1°C 180º 12kt >10km - Overcast 4500ft 1021 No Significant change UARR 040300Z 18006MPS 9999 OVC045 02/01 Q1021 NOSIG RMK QFE762/1016
MVFR 1°C / 1°C 180º 10kt >10km - Overcast 2500ft 1021 No Significant change UARR 040230Z 18005MPS 9999 OVC025 01/01 Q1021 NOSIG RMK QFE762/1016
MVFR 1°C / 1°C 180º 12kt >10km - Broken Clouds 2000ft 1021 No Significant change UARR 040200Z 18006MPS 9999 BKN020 01/01 Q1021 NOSIG RMK QFE762/1016

VFR

4°C / 2°C

[Mai mult]
Vânt 180º 19kt
Vizibilitate >10km
Vremea -
Nori Broken Clouds 3300ft
Presiune 1016
Schimbă No Significant change
Brut UARR 041330Z 18010MPS 9999 BKN033 04/02 Q1016 NOSIG RMK QFE759/1012

VFR

4°C / 2°C

[Mai mult]
Vânt 170º 17kt
Vizibilitate >10km
Vremea -
Nori Broken Clouds 3600ft
Presiune 1016
Schimbă No Significant change
Brut UARR 041300Z 17009MPS 9999 BKN036 04/02 Q1016 NOSIG RMK QFE759/1012

VFR

4°C / 2°C

[Mai mult]
Vânt 170º 17kt
Vizibilitate >10km
Vremea -
Nori Overcast 3500ft
Presiune 1017
Schimbă No Significant change
Brut UARR 041230Z 17009MPS 9999 OVC035 04/02 Q1017 NOSIG RMK QFE759/1012

VFR

4°C / 2°C

[Mai mult]
Vânt 170º 16kt
Vizibilitate >10km
Vremea -
Nori Broken Clouds 3600ft
Presiune 1017
Schimbă No Significant change
Brut UARR 041200Z 17008MPS 9999 BKN036 04/02 Q1017 NOSIG RMK QFE759/1012

VFR

4°C / 2°C

[Mai mult]
Vânt 170º 17kt
Vizibilitate >10km
Vremea -
Nori Broken Clouds 3600ft
Presiune 1017
Schimbă No Significant change
Brut UARR 041130Z 17009MPS 9999 BKN036 04/02 Q1017 NOSIG RMK QFE759/1012

VFR

5°C / 2°C

[Mai mult]
Vânt 170º 17kt
Vizibilitate >10km
Vremea -
Nori Broken Clouds 3500ft
Presiune 1017
Schimbă No Significant change
Brut UARR 041100Z 17009MPS 9999 BKN035 05/02 Q1017 NOSIG RMK QFE759/1012

VFR

5°C / 2°C

[Mai mult]
Vânt 170º 19kt
Vizibilitate >10km
Vremea -
Nori Broken Clouds 3200ft
Presiune 1017
Schimbă No Significant change
Brut UARR 041030Z 17010MPS 9999 BKN032 05/02 Q1017 NOSIG RMK QFE759/1012

VFR

5°C / 2°C

[Mai mult]
Vânt 170º 17kt
Vizibilitate >10km
Vremea -
Nori Few Clouds 2600ft
Presiune 1017
Schimbă No Significant change
Brut UARR 041000Z 17009MPS 9999 FEW026 05/02 Q1017 NOSIG RMK QFE759/1013

MVFR

4°C / 2°C

[Mai mult]
Vânt 180º 19kt
Vizibilitate >10km
Vremea -
Nori Scattered Clouds 1200ft
Broken Clouds 2600ft
Presiune 1018
Schimbă No Significant change
Brut UARR 040930Z 18010MPS 9999 SCT012 BKN026 04/02 Q1018 NOSIG RMK QFE760/1013

MVFR

4°C / 2°C

[Mai mult]
Vânt 170º 17kt
Vizibilitate >10km
Vremea -
Nori Scattered Clouds 1100ft
Broken Clouds 2600ft
Presiune 1018
Schimbă No Significant change
Brut UARR 040900Z 17009MPS 9999 SCT011 BKN026 04/02 Q1018 NOSIG RMK QFE760/1013

MVFR

3°C / 1°C

[Mai mult]
Vânt 180º 19kt
Vizibilitate >10km
Vremea -
Nori Scattered Clouds 1100ft
Overcast 2600ft
Presiune 1018
Schimbă No Significant change
Brut UARR 040830Z 18010MPS 9999 SCT011 OVC026 03/01 Q1018 NOSIG RMK QFE760/1014

MVFR

3°C / 1°C

[Mai mult]
Vânt 180º 19kt
Vizibilitate >10km
Vremea -
Nori Broken Clouds 1400ft
Presiune 1018
Schimbă No Significant change
Brut UARR 040808Z 18010MPS 9999 BKN014 03/01 Q1018 NOSIG RMK QFE760/1014

VFR

3°C / 0°C

[Mai mult]
Vânt 180º 21kt
Vizibilitate >10km
Vremea -
Nori Few Clouds 3300ft
Presiune 1019
Schimbă No Significant change
Brut UARR 040730Z 18011MPS 9999 FEW033 03/00 Q1019 NOSIG RMK QFE760/1014

VFR

2°C / 0°C

[Mai mult]
Vânt 180º 19kt
Vizibilitate >10km
Vremea -
Nori Few Clouds 3300ft
Presiune 1019
Schimbă No Significant change
Brut UARR 040700Z 18010MPS 9999 FEW033 02/M00 Q1019 NOSIG RMK QFE761/1014

VFR

2°C / -1°C

[Mai mult]
Vânt 180º 19kt
Vizibilitate >10km
Vremea -
Nori Scattered Clouds 2600ft
Presiune 1020
Schimbă No Significant change
Brut UARR 040630Z 18010MPS 9999 SCT026 02/M01 Q1020 NOSIG RMK QFE761/1015

VFR

1°C / -1°C

[Mai mult]
Vânt 180º 17kt
Vizibilitate >10km
Vremea -
Nori Few Clouds 3300ft
Presiune 1020
Schimbă No Significant change
Brut UARR 040600Z 18009MPS 9999 FEW033 01/M01 Q1020 NOSIG RMK QFE761/1015

VFR

1°C / -1°C

[Mai mult]
Vânt 180º 17kt
Vizibilitate >10km
Vremea -
Nori Few Clouds 3300ft
Presiune 1020
Schimbă No Significant change
Brut UARR 040530Z 18009MPS 9999 FEW033 01/M01 Q1020 NOSIG RMK QFE761/1015

VFR

1°C / -1°C

[Mai mult]
Vânt 180º 16kt
Vizibilitate >10km
Vremea -
Nori Clouds and Visibility OK
Presiune 1020
Schimbă No Significant change
Brut UARR 040500Z 18008MPS CAVOK 01/M01 Q1020 NOSIG RMK QFE761/1015

VFR

1°C / 0°C

[Mai mult]
Vânt 170º 16kt
Vizibilitate >10km
Vremea -
Nori Clouds and Visibility OK
Presiune 1020
Schimbă No Significant change
Brut UARR 040430Z 17008MPS CAVOK 01/M00 Q1020 NOSIG RMK QFE761/1015

VFR

1°C / 0°C

[Mai mult]
Vânt 170º 14kt
Vizibilitate >10km
Vremea -
Nori Clouds and Visibility OK
Presiune 1020
Schimbă No Significant change
Brut UARR 040400Z 17007MPS CAVOK 01/00 Q1020 NOSIG RMK QFE762/1016

VFR

1°C / 1°C

[Mai mult]
Vânt 170º 12kt
Vizibilitate >10km
Vremea -
Nori Clouds and Visibility OK
Presiune 1021
Schimbă No Significant change
Brut UARR 040330Z 17006MPS CAVOK 01/01 Q1021 NOSIG RMK QFE762/1016

VFR

2°C / 1°C

[Mai mult]
Vânt 180º 12kt
Vizibilitate >10km
Vremea -
Nori Overcast 4500ft
Presiune 1021
Schimbă No Significant change
Brut UARR 040300Z 18006MPS 9999 OVC045 02/01 Q1021 NOSIG RMK QFE762/1016

MVFR

1°C / 1°C

[Mai mult]
Vânt 180º 10kt
Vizibilitate >10km
Vremea -
Nori Overcast 2500ft
Presiune 1021
Schimbă No Significant change
Brut UARR 040230Z 18005MPS 9999 OVC025 01/01 Q1021 NOSIG RMK QFE762/1016

MVFR

1°C / 1°C

[Mai mult]
Vânt 180º 12kt
Vizibilitate >10km
Vremea -
Nori Broken Clouds 2000ft
Presiune 1021
Schimbă No Significant change
Brut UARR 040200Z 18006MPS 9999 BKN020 01/01 Q1021 NOSIG RMK QFE762/1016

TAF pentru 51.15°N 51.54°E (UARR)

From till


From till Wind 180º 14kt. Gust 25kt. Visibility 3100m. Light Showers Rain Mist . Broken Clouds 1100ft. Broken Clouds 3300ft.
Temporarly from till Wind 160º 19kt. Gust 31kt.
Temporarly from till Broken Clouds 600ft. Broken Clouds 2000ft.

Brut: TAF UARR 041100Z 0412/0421 18007G13MPS 3100 -SHRA BR BKN011 BKN033CB TEMPO 0412/0415 16010G16MPS TEMPO 0415/0421 BKN006 BKN020CB

Radar și nowcast de precipitații pentru 51.15°N 51.54°E

Burniță
Ușoară
Moderat
Greu
Foarte greu
Grindină

Markerul de locație este plasat în 51.15°N 51.54°E. Această animație arată radarul de precipitații pentru ultima oră, precum și o 1h prognoză. Ploaia sau ninsoarea slabă ar putea fi invizibilă pentru radar. Intensitatea precipitațiilor este codificată prin culori, de la albastru deschis la portocaliu.

Imagini satelitare și ploaie pentru 51.15°N 51.54°E

Markerul cu locaţia este poziţionat pe 51.15°N 51.54°E. [Mai mult]

Imaginea satelitară în timp real combină lumina vizibilă din timpul zilei cu radiația cu infraroșu din timpul nopții. Pe timp de noapte, imaginea nu este întunecată, deoarece radiația cu infraroșu poate detecta diferențele de temperatură. Din păcate, norii joși și ceața sunt greu de recunoscut față de temperatura de la sol, din această cauză putând fi invizibili pe timp de noapte. Imaginile satelitare Meteosat pentru Europa sunt actualizate în timp real din 5 în 5 minute. Imaginile GOES-16/GOES-17 (America de Nord și de Sud) și Himawari (Asia) sunt actualizate din 10 în 10 minute.

Toate drepturile rezervate 2021 EUMETSAT / meteoblue. / Toate drepturile rezervate 2021 meteoblue